JFA56E EGGW-LEIB

Flight info

Callsign JFA56E
Flight time 2h 16m
Altitude 41000
Route RODNI N27 ICTAM Q63 CPT UN859 SOPIL DCT BALAN DCT EVPOK DCT NARAK DCT GAI DCT LOMRA DCT ROCAN DCT PUMAL N859 BCN Z174 CORDA
Aircraft PC24/M-SBDGIRWY/LB2

Departure

Time 2026-04-30 11:53
Airport London Luton Airport (EGGW)

Arrival

Time 2026-04-30 14:09
Airport Ibiza Airport (LEIB)
Time Latitude Longitude Altitude Speed Heading
2026-04-30 11:19 51.87802 -0.38036 518 ft 0 kts 135°
2026-04-30 11:48 51.87796 -0.37969 518 ft 11 kts 87°
2026-04-30 11:49 51.87764 -0.37776 518 ft 21 kts 115°
2026-04-30 11:49 51.87692 -0.37539 517 ft 25 kts 123°
2026-04-30 11:49 51.87540 -0.37474 517 ft 24 kts 203°
2026-04-30 11:49 51.87470 -0.37738 518 ft 30 kts 254°
2026-04-30 11:50 51.87419 -0.38005 518 ft 16 kts 240°
2026-04-30 11:50 51.87365 -0.38068 519 ft 0 kts 202°
2026-04-30 11:52 51.87324 -0.38097 519 ft 15 kts 203°
2026-04-30 11:52 51.87251 -0.38067 519 ft 12 kts 83°
2026-04-30 11:52 51.87317 -0.37692 518 ft 70 kts 74°
2026-04-30 11:52 51.87505 -0.36545 594 ft 133 kts 76°
2026-04-30 11:53 51.87835 -0.34924 1009 ft 164 kts 72°
2026-04-30 11:53 51.88149 -0.33162 1551 ft 164 kts 81°
2026-04-30 11:53 51.88422 -0.31348 2077 ft 165 kts 79°
2026-04-30 11:53 51.88721 -0.29546 2598 ft 168 kts 81°
2026-04-30 11:54 51.89035 -0.27733 3139 ft 165 kts 82°
2026-04-30 11:54 51.89130 -0.25868 3735 ft 174 kts 103°
2026-04-30 11:54 51.88676 -0.24056 4350 ft 177 kts 122°
2026-04-30 11:54 51.88039 -0.22271 4874 ft 187 kts 121°
2026-04-30 11:55 51.87235 -0.20617 4994 ft 191 kts 144°
2026-04-30 11:55 51.86004 -0.19869 5022 ft 192 kts 169°
2026-04-30 11:55 51.84695 -0.20241 5295 ft 194 kts 198°
2026-04-30 11:55 51.83623 -0.21735 5795 ft 214 kts 231°
2026-04-30 11:56 51.83232 -0.24165 6304 ft 237 kts 269°
2026-04-30 11:56 51.83331 -0.26798 6816 ft 232 kts 253°
2026-04-30 11:56 51.83064 -0.29296 7650 ft 231 kts 263°
2026-04-30 11:56 51.83021 -0.31936 8408 ft 237 kts 259°
2026-04-30 11:57 51.82716 -0.34547 9174 ft 236 kts 249°
2026-04-30 11:57 51.82263 -0.37145 9953 ft 245 kts 249°
2026-04-30 11:57 51.81836 -0.39802 10707 ft 245 kts 251°
2026-04-30 11:57 51.81442 -0.42495 11521 ft 248 kts 252°
2026-04-30 11:58 51.81031 -0.45223 12358 ft 252 kts 251°
2026-04-30 11:58 51.80604 -0.48073 12934 ft 271 kts 252°
2026-04-30 11:58 51.80151 -0.51133 13478 ft 289 kts 252°
2026-04-30 11:58 51.79671 -0.54382 14030 ft 306 kts 253°
2026-04-30 11:59 51.78869 -0.57572 14498 ft 308 kts 229°
2026-04-30 11:59 51.77219 -0.59645 14971 ft 301 kts 198°
2026-04-30 11:59 51.75191 -0.60136 15475 ft 294 kts 177°
2026-04-30 11:59 51.73124 -0.60048 15981 ft 299 kts 176°
2026-04-30 12:00 51.71015 -0.60134 16492 ft 310 kts 181°
2026-04-30 12:00 51.68835 -0.60577 17015 ft 321 kts 186°
2026-04-30 12:00 51.66605 -0.61101 17706 ft 325 kts 185°
2026-04-30 12:00 51.64348 -0.61510 18448 ft 327 kts 183°
2026-04-30 12:01 51.62074 -0.61884 19111 ft 330 kts 183°
2026-04-30 12:01 51.59791 -0.62301 19846 ft 329 kts 184°
2026-04-30 12:01 51.57520 -0.62730 20643 ft 328 kts 183°
2026-04-30 12:01 51.55259 -0.63147 21464 ft 326 kts 182°
2026-04-30 12:02 51.53009 -0.63552 22308 ft 324 kts 182°
2026-04-30 12:02 51.50773 -0.63958 23176 ft 322 kts 182°
2026-04-30 12:02 51.48560 -0.64363 24022 ft 318 kts 182°
2026-04-30 12:02 51.46372 -0.64761 24796 ft 315 kts 182°
2026-04-30 12:03 51.44209 -0.65154 25554 ft 311 kts 182°
2026-04-30 12:03 51.39846 -0.65940 26561 ft 320 kts 182°
2026-04-30 12:03 51.37616 -0.66345 27043 ft 325 kts 182°
2026-04-30 12:04 51.35338 -0.66757 27329 ft 335 kts 182°
2026-04-30 12:04 51.32991 -0.67179 27602 ft 344 kts 182°
2026-04-30 12:04 51.30603 -0.67612 27876 ft 347 kts 182°
2026-04-30 12:04 51.28196 -0.68050 28145 ft 349 kts 182°
2026-04-30 12:05 51.25778 -0.68486 28418 ft 350 kts 182°
2026-04-30 12:05 51.23350 -0.68922 28689 ft 352 kts 182°
2026-04-30 12:05 51.20914 -0.69359 28946 ft 353 kts 182°
2026-04-30 12:05 51.18464 -0.69799 29211 ft 354 kts 182°
2026-04-30 12:06 51.16019 -0.70241 29636 ft 353 kts 182°
2026-04-30 12:06 51.13592 -0.70676 30061 ft 350 kts 182°
2026-04-30 12:06 51.11173 -0.71108 30448 ft 348 kts 182°
2026-04-30 12:06 51.08774 -0.71539 30785 ft 347 kts 182°
2026-04-30 12:07 51.06366 -0.71968 31023 ft 348 kts 182°
2026-04-30 12:07 51.03957 -0.72396 31269 ft 349 kts 182°
2026-04-30 12:07 51.01540 -0.72828 31504 ft 350 kts 182°
2026-04-30 12:07 50.99147 -0.73254 31760 ft 350 kts 182°
2026-04-30 12:08 50.96730 -0.73685 32017 ft 350 kts 182°
2026-04-30 12:08 50.94311 -0.74115 32270 ft 349 kts 182°
2026-04-30 12:08 50.91895 -0.74544 32538 ft 350 kts 182°
2026-04-30 12:08 50.89481 -0.74856 32947 ft 346 kts 176°
2026-04-30 12:09 50.87097 -0.74596 33348 ft 342 kts 168°
2026-04-30 12:09 50.84789 -0.73784 33752 ft 339 kts 160°
2026-04-30 12:09 50.82603 -0.72450 34152 ft 335 kts 153°
2026-04-30 12:09 50.80582 -0.70638 34511 ft 333 kts 146°
2026-04-30 12:10 50.78645 -0.68645 34869 ft 332 kts 146°
2026-04-30 12:10 50.76704 -0.66686 35224 ft 330 kts 147°
2026-04-30 12:10 50.74772 -0.64731 35586 ft 329 kts 147°
2026-04-30 12:10 50.72853 -0.62778 35948 ft 327 kts 147°
2026-04-30 12:11 50.70946 -0.60839 36319 ft 326 kts 147°
2026-04-30 12:11 50.69045 -0.58914 36652 ft 325 kts 147°
2026-04-30 12:11 50.67137 -0.56984 36903 ft 327 kts 147°
2026-04-30 12:11 50.65221 -0.55046 37163 ft 328 kts 147°
2026-04-30 12:12 50.63298 -0.53103 37434 ft 329 kts 148°
2026-04-30 12:12 50.61369 -0.51155 37703 ft 329 kts 148°
2026-04-30 12:12 50.59440 -0.49211 37975 ft 330 kts 148°
2026-04-30 12:12 50.57507 -0.47263 38249 ft 330 kts 148°
2026-04-30 12:13 50.55570 -0.45314 38525 ft 330 kts 148°
2026-04-30 12:13 50.53635 -0.43368 38805 ft 330 kts 148°
2026-04-30 12:13 50.51701 -0.41425 39033 ft 330 kts 148°
2026-04-30 12:13 50.49767 -0.39487 39256 ft 330 kts 148°
2026-04-30 12:14 50.47836 -0.37548 39483 ft 329 kts 148°
2026-04-30 12:14 50.45906 -0.35615 39710 ft 329 kts 148°
2026-04-30 12:14 50.43977 -0.33687 39937 ft 328 kts 148°
2026-04-30 12:14 50.42044 -0.31755 40079 ft 331 kts 148°
2026-04-30 12:15 50.40090 -0.29804 40199 ft 334 kts 148°
2026-04-30 12:15 50.38119 -0.27838 40324 ft 337 kts 148°
2026-04-30 12:15 50.36133 -0.25860 40446 ft 340 kts 148°
2026-04-30 12:15 50.34129 -0.23864 40573 ft 343 kts 148°
2026-04-30 12:16 50.32109 -0.21855 40704 ft 345 kts 148°
2026-04-30 12:16 50.30075 -0.19833 40824 ft 348 kts 148°
2026-04-30 12:16 50.28026 -0.17801 40948 ft 350 kts 148°
2026-04-30 12:16 50.25962 -0.15755 41077 ft 352 kts 148°
2026-04-30 12:17 50.21783 -0.11619 41181 ft 360 kts 148°
2026-04-30 12:17 50.17493 -0.07381 41177 ft 370 kts 148°
2026-04-30 12:18 50.13117 -0.03067 41177 ft 379 kts 148°
2026-04-30 12:18 50.08380 0.00619 41174 ft 386 kts 163°
2026-04-30 12:19 50.03147 0.02698 41172 ft 391 kts 165°
2026-04-30 12:19 49.97848 0.04799 41165 ft 394 kts 166°
2026-04-30 12:20 49.92515 0.06886 41166 ft 396 kts 166°
2026-04-30 12:20 49.87175 0.08984 41150 ft 396 kts 166°
2026-04-30 12:21 49.81836 0.11072 41149 ft 395 kts 166°
2026-04-30 12:21 49.76500 0.13154 41140 ft 396 kts 166°
2026-04-30 12:22 49.71144 0.15241 41139 ft 397 kts 166°
2026-04-30 12:22 49.65778 0.17340 41140 ft 398 kts 165°
2026-04-30 12:23 49.60422 0.19538 41134 ft 399 kts 165°
2026-04-30 12:23 49.55043 0.21683 41134 ft 399 kts 165°
2026-04-30 12:24 49.49680 0.23844 41141 ft 399 kts 165°
2026-04-30 12:24 49.44311 0.25990 41134 ft 399 kts 165°
2026-04-30 12:25 49.38934 0.28141 41139 ft 400 kts 165°
2026-04-30 12:25 49.33526 0.30297 41136 ft 403 kts 165°
2026-04-30 12:26 49.28140 0.32473 41138 ft 402 kts 164°
2026-04-30 12:26 49.22753 0.34804 41138 ft 403 kts 165°
2026-04-30 12:27 49.17361 0.37043 41125 ft 402 kts 165°
2026-04-30 12:27 49.11971 0.39323 41120 ft 402 kts 165°
2026-04-30 12:28 49.06563 0.41581 41124 ft 403 kts 165°
2026-04-30 12:28 49.01156 0.43844 41119 ft 403 kts 165°
2026-04-30 12:29 48.96618 0.45737 41121 ft 404 kts 165°
2026-04-30 12:29 48.91193 0.47995 41117 ft 403 kts 165°
2026-04-30 12:30 48.85794 0.50238 41113 ft 401 kts 165°
2026-04-30 12:30 48.80446 0.52454 41109 ft 402 kts 165°
2026-04-30 12:31 48.75030 0.54635 41117 ft 402 kts 166°
2026-04-30 12:31 48.69600 0.56729 41115 ft 403 kts 166°
2026-04-30 12:32 48.64173 0.58873 41109 ft 403 kts 166°
2026-04-30 12:32 48.58734 0.60987 41109 ft 404 kts 166°
2026-04-30 12:33 48.53285 0.63115 41112 ft 405 kts 166°
2026-04-30 12:33 48.47821 0.65302 41106 ft 407 kts 165°
2026-04-30 12:34 48.42366 0.67549 41102 ft 406 kts 166°
2026-04-30 12:34 48.36896 0.69751 41103 ft 407 kts 165°
2026-04-30 12:35 48.31442 0.71970 41102 ft 405 kts 166°
2026-04-30 12:35 48.26010 0.74157 41095 ft 404 kts 166°
2026-04-30 12:36 48.20570 0.76319 41087 ft 405 kts 166°
2026-04-30 12:36 48.15118 0.78453 41086 ft 405 kts 166°
2026-04-30 12:37 48.09696 0.80588 41086 ft 406 kts 166°
2026-04-30 12:37 48.04241 0.82722 41085 ft 405 kts 166°
2026-04-30 12:38 47.98765 0.84865 41084 ft 408 kts 166°
2026-04-30 12:38 47.93258 0.87012 41093 ft 409 kts 166°
2026-04-30 12:39 47.87772 0.89149 41091 ft 406 kts 166°
2026-04-30 12:39 47.82314 0.91268 41084 ft 405 kts 166°
2026-04-30 12:40 47.76849 0.93387 41087 ft 406 kts 166°
2026-04-30 12:40 47.71387 0.95499 41084 ft 405 kts 167°
2026-04-30 12:41 47.65921 0.97607 41087 ft 406 kts 167°
2026-04-30 12:41 47.60454 0.99713 41085 ft 405 kts 167°
2026-04-30 12:42 47.54982 1.01814 41093 ft 407 kts 167°
2026-04-30 12:42 47.49477 1.03926 41093 ft 410 kts 166°
2026-04-30 12:43 47.43944 1.05996 41089 ft 409 kts 170°
2026-04-30 12:43 47.38344 1.06335 41091 ft 405 kts 182°
2026-04-30 12:44 47.32706 1.06206 41099 ft 406 kts 182°
2026-04-30 12:44 47.27047 1.06070 41101 ft 408 kts 182°
2026-04-30 12:45 47.21362 1.05938 41100 ft 409 kts 181°
2026-04-30 12:45 47.15683 1.05806 41098 ft 407 kts 182°
2026-04-30 12:46 47.10045 1.05674 41095 ft 404 kts 182°
2026-04-30 12:46 47.04411 1.05542 41094 ft 406 kts 182°
2026-04-30 12:47 46.98756 1.05362 41101 ft 407 kts 183°
2026-04-30 12:47 46.93086 1.05079 41100 ft 408 kts 182°
2026-04-30 12:48 46.87408 1.04857 41102 ft 408 kts 182°
2026-04-30 12:48 46.81756 1.04607 41099 ft 405 kts 182°
2026-04-30 12:49 46.76134 1.04373 41102 ft 403 kts 182°
2026-04-30 12:49 46.70529 1.04131 41103 ft 404 kts 182°
2026-04-30 12:50 46.64898 1.03895 41106 ft 406 kts 182°
2026-04-30 12:50 46.59250 1.03655 41107 ft 406 kts 182°
2026-04-30 12:51 46.53597 1.03419 41108 ft 406 kts 182°
2026-04-30 12:51 46.48015 1.04536 41108 ft 406 kts 168°
2026-04-30 12:52 46.42554 1.06367 41113 ft 405 kts 168°
2026-04-30 12:52 46.37062 1.08201 41114 ft 406 kts 168°
2026-04-30 12:53 46.31539 1.10044 41119 ft 408 kts 168°
2026-04-30 12:53 46.25991 1.11888 41121 ft 410 kts 168°
2026-04-30 12:54 46.20452 1.13728 41117 ft 407 kts 168°
2026-04-30 12:54 46.14952 1.15550 41114 ft 405 kts 168°
2026-04-30 12:55 46.09451 1.17367 41119 ft 407 kts 169°
2026-04-30 12:55 46.03921 1.19194 41123 ft 409 kts 169°
2026-04-30 12:56 45.98369 1.21021 41125 ft 409 kts 169°
2026-04-30 12:56 45.92824 1.22844 41127 ft 408 kts 169°
2026-04-30 12:57 45.87300 1.24655 41125 ft 407 kts 169°
2026-04-30 12:57 45.81785 1.26459 41122 ft 406 kts 169°
2026-04-30 12:58 45.76282 1.28257 41126 ft 406 kts 169°
2026-04-30 12:58 45.70761 1.30055 41122 ft 408 kts 169°
2026-04-30 12:59 45.65213 1.31861 41128 ft 410 kts 169°
2026-04-30 12:59 45.59643 1.33668 41131 ft 411 kts 169°
2026-04-30 13:00 45.54056 1.35479 41126 ft 412 kts 169°
2026-04-30 13:00 45.48474 1.37283 41121 ft 410 kts 169°
2026-04-30 13:01 45.42922 1.39074 41107 ft 408 kts 169°
2026-04-30 13:01 45.37382 1.40858 41120 ft 410 kts 169°
2026-04-30 13:02 45.31787 1.42655 41127 ft 414 kts 169°
2026-04-30 13:02 45.26188 1.44452 41132 ft 411 kts 169°
2026-04-30 13:03 45.20624 1.46233 41128 ft 409 kts 169°
2026-04-30 13:03 45.15096 1.47997 41132 ft 411 kts 169°
2026-04-30 13:04 45.09499 1.49781 41133 ft 413 kts 169°
2026-04-30 13:04 45.03879 1.51569 41132 ft 413 kts 169°
2026-04-30 13:05 44.98275 1.53349 41130 ft 412 kts 169°
2026-04-30 13:06 44.89888 1.56005 41124 ft 411 kts 169°
2026-04-30 13:06 44.84307 1.57768 41121 ft 411 kts 170°
2026-04-30 13:07 44.78733 1.59525 41118 ft 410 kts 170°
2026-04-30 13:07 44.73164 1.61278 41113 ft 410 kts 170°
2026-04-30 13:08 44.67605 1.63022 41111 ft 409 kts 170°
2026-04-30 13:08 44.62053 1.64763 41110 ft 409 kts 170°
2026-04-30 13:09 44.56484 1.66505 41112 ft 411 kts 170°
2026-04-30 13:09 44.50890 1.68251 41116 ft 413 kts 170°
2026-04-30 13:10 44.45302 1.69993 41115 ft 410 kts 170°
2026-04-30 13:10 44.39787 1.71707 41107 ft 407 kts 171°
2026-04-30 13:11 44.34267 1.73420 41105 ft 407 kts 171°
2026-04-30 13:11 44.28731 1.75079 41106 ft 406 kts 174°
2026-04-30 13:12 44.23148 1.76295 41110 ft 406 kts 174°
2026-04-30 13:12 44.17556 1.77542 41113 ft 407 kts 174°
2026-04-30 13:13 44.09149 1.79393 41109 ft 408 kts 174°
2026-04-30 13:14 44.00720 1.81249 41106 ft 409 kts 174°
2026-04-30 13:14 43.92318 1.82715 41106 ft 404 kts 179°
2026-04-30 13:15 43.83903 1.83541 41101 ft 406 kts 179°
2026-04-30 13:16 43.78244 1.84082 41105 ft 409 kts 179°
2026-04-30 13:16 43.72559 1.84639 41101 ft 409 kts 179°
2026-04-30 13:17 43.64060 1.85458 41096 ft 407 kts 179°
2026-04-30 13:18 43.56552 1.86182 41091 ft 406 kts 179°
2026-04-30 13:18 43.48056 1.86998 41085 ft 409 kts 180°
2026-04-30 13:19 43.42365 1.87545 41082 ft 411 kts 180°
2026-04-30 13:19 43.36655 1.88092 41073 ft 410 kts 180°
2026-04-30 13:20 43.30976 1.88635 41076 ft 408 kts 180°
2026-04-30 13:20 43.25323 1.89176 41077 ft 408 kts 180°
2026-04-30 13:21 43.19651 1.89716 41083 ft 410 kts 180°
2026-04-30 13:22 43.11084 1.90534 41084 ft 411 kts 180°
2026-04-30 13:22 43.02557 1.91344 41074 ft 408 kts 180°
2026-04-30 13:23 42.94055 1.92150 41080 ft 409 kts 180°
2026-04-30 13:24 42.82650 1.93226 41081 ft 412 kts 181°
2026-04-30 13:25 42.71256 1.94300 41098 ft 407 kts 181°
2026-04-30 13:26 42.57083 1.96737 41106 ft 411 kts 176°
2026-04-30 13:28 42.42920 1.99592 41108 ft 414 kts 176°
2026-04-30 13:28 42.34372 2.01074 41108 ft 409 kts 181°
2026-04-30 13:29 42.23035 2.02146 41107 ft 408 kts 181°
2026-04-30 13:31 42.08780 2.03495 41098 ft 411 kts 181°
2026-04-30 13:32 41.94570 2.04832 41085 ft 410 kts 182°
2026-04-30 13:33 41.83142 2.05908 41091 ft 410 kts 182°
2026-04-30 13:34 41.74683 2.06700 41088 ft 407 kts 182°
2026-04-30 13:35 41.63336 2.07758 41094 ft 409 kts 182°
2026-04-30 13:36 41.52024 2.08812 40436 ft 403 kts 182°
2026-04-30 13:36 41.49244 2.09069 39950 ft 398 kts 182°
2026-04-30 13:36 41.43777 2.09576 39014 ft 390 kts 183°
2026-04-30 13:37 41.41066 2.09824 38505 ft 391 kts 184°
2026-04-30 13:37 41.35606 2.10326 37423 ft 396 kts 184°
2026-04-30 13:38 41.30092 2.10875 36388 ft 400 kts 181°
2026-04-30 13:38 41.27323 2.11347 35891 ft 402 kts 180°
2026-04-30 13:38 41.21768 2.12286 34916 ft 403 kts 180°
2026-04-30 13:39 41.16196 2.13216 33953 ft 404 kts 180°
2026-04-30 13:39 41.10617 2.14152 32889 ft 404 kts 180°
2026-04-30 13:40 41.07827 2.14618 32375 ft 404 kts 180°
2026-04-30 13:40 41.05037 2.15084 31866 ft 404 kts 180°
2026-04-30 13:40 41.02248 2.15550 31370 ft 404 kts 180°
2026-04-30 13:40 40.99454 2.16015 30882 ft 405 kts 180°
2026-04-30 13:41 40.96652 2.16482 30402 ft 406 kts 180°
2026-04-30 13:41 40.93849 2.16949 29890 ft 407 kts 180°
2026-04-30 13:41 40.91032 2.17417 29330 ft 407 kts 179°
2026-04-30 13:41 40.88257 2.17879 28931 ft 406 kts 179°
2026-04-30 13:42 40.85406 2.18352 28912 ft 411 kts 179°
2026-04-30 13:42 40.76887 2.19763 28465 ft 415 kts 179°
2026-04-30 13:43 40.74040 2.20237 27931 ft 411 kts 179°
2026-04-30 13:43 40.71203 2.20706 27411 ft 410 kts 179°
2026-04-30 13:43 40.68365 2.21172 26901 ft 412 kts 179°
2026-04-30 13:43 40.65526 2.21641 26402 ft 410 kts 179°
2026-04-30 13:44 40.62703 2.22109 25910 ft 408 kts 179°
2026-04-30 13:44 40.59897 2.22572 25423 ft 405 kts 179°
2026-04-30 13:44 40.57107 2.23029 24952 ft 403 kts 179°
2026-04-30 13:44 40.54330 2.23486 24480 ft 400 kts 178°
2026-04-30 13:45 40.48842 2.24389 23551 ft 395 kts 178°
2026-04-30 13:45 40.46127 2.24834 23010 ft 392 kts 178°
2026-04-30 13:45 40.43432 2.25275 22474 ft 389 kts 178°
2026-04-30 13:46 40.40764 2.25773 21948 ft 387 kts 174°
2026-04-30 13:46 40.38135 2.26474 21436 ft 384 kts 174°
2026-04-30 13:46 40.35526 2.27156 20930 ft 381 kts 174°
2026-04-30 13:46 40.32927 2.27821 20436 ft 379 kts 174°
2026-04-30 13:47 40.30352 2.28484 19945 ft 376 kts 174°
2026-04-30 13:47 40.27793 2.29149 19467 ft 374 kts 173°
2026-04-30 13:47 40.25258 2.29807 19127 ft 368 kts 174°
2026-04-30 13:47 40.22737 2.30456 19072 ft 369 kts 174°
2026-04-30 13:48 40.20216 2.31105 19074 ft 371 kts 174°
2026-04-30 13:48 40.17684 2.31758 19076 ft 371 kts 173°
2026-04-30 13:48 40.15151 2.32413 19076 ft 371 kts 173°
2026-04-30 13:48 40.12618 2.33065 19072 ft 371 kts 173°
2026-04-30 13:49 40.10088 2.33716 19073 ft 371 kts 173°
2026-04-30 13:49 40.07560 2.34366 19069 ft 370 kts 173°
2026-04-30 13:49 40.05035 2.35015 19066 ft 370 kts 173°
2026-04-30 13:49 40.02537 2.35655 19064 ft 371 kts 173°
2026-04-30 13:50 40.00002 2.36306 19065 ft 372 kts 173°
2026-04-30 13:50 39.94925 2.37608 19061 ft 371 kts 173°
2026-04-30 13:50 39.92400 2.38254 19056 ft 370 kts 173°
2026-04-30 13:51 39.89875 2.38900 19055 ft 369 kts 173°
2026-04-30 13:51 39.87355 2.39544 19045 ft 370 kts 173°
2026-04-30 13:51 39.84824 2.40190 19046 ft 371 kts 173°
2026-04-30 13:51 39.82285 2.40838 19046 ft 372 kts 173°
2026-04-30 13:52 39.79749 2.41486 19042 ft 371 kts 173°
2026-04-30 13:52 39.77218 2.42130 19042 ft 370 kts 173°
2026-04-30 13:52 39.74680 2.42459 19039 ft 365 kts 184°
2026-04-30 13:52 39.72155 2.42222 19039 ft 363 kts 191°
2026-04-30 13:53 39.69640 2.41820 19039 ft 364 kts 190°
2026-04-30 13:53 39.67127 2.41446 19041 ft 363 kts 190°
2026-04-30 13:53 39.64619 2.41068 19037 ft 363 kts 190°
2026-04-30 13:53 39.62113 2.40682 19043 ft 363 kts 190°
2026-04-30 13:54 39.59636 2.40128 19038 ft 360 kts 198°
2026-04-30 13:54 39.57290 2.39034 19033 ft 358 kts 207°
2026-04-30 13:54 39.55139 2.37448 19037 ft 355 kts 216°
2026-04-30 13:54 39.53241 2.35426 19033 ft 352 kts 226°
2026-04-30 13:55 39.51649 2.33040 18961 ft 349 kts 235°
2026-04-30 13:55 39.50314 2.30428 18961 ft 349 kts 238°
2026-04-30 13:55 39.48981 2.27803 18967 ft 350 kts 238°
2026-04-30 13:55 39.47643 2.25176 18968 ft 350 kts 238°
2026-04-30 13:56 39.46308 2.22547 18968 ft 349 kts 238°
2026-04-30 13:56 39.44975 2.19921 18967 ft 349 kts 238°
2026-04-30 13:56 39.43640 2.17296 18970 ft 349 kts 238°
2026-04-30 13:56 39.42309 2.14682 18972 ft 348 kts 238°
2026-04-30 13:57 39.40975 2.12066 18967 ft 348 kts 238°
2026-04-30 13:57 39.39647 2.09460 18970 ft 347 kts 237°
2026-04-30 13:57 39.38331 2.06883 18973 ft 349 kts 237°
2026-04-30 13:57 39.36993 2.04261 18973 ft 350 kts 237°
2026-04-30 13:58 39.35650 2.01636 18974 ft 349 kts 237°
2026-04-30 13:58 39.32968 1.96396 18660 ft 351 kts 237°
2026-04-30 13:58 39.31656 1.93838 18189 ft 330 kts 237°
2026-04-30 13:59 39.30437 1.91463 17756 ft 304 kts 237°
2026-04-30 13:59 39.29311 1.89275 17363 ft 282 kts 237°
2026-04-30 13:59 39.27898 1.87644 16903 ft 270 kts 212°
2026-04-30 13:59 39.26177 1.86750 16492 ft 268 kts 197°
2026-04-30 14:00 39.24335 1.86365 16102 ft 268 kts 192°
2026-04-30 14:00 39.20639 1.85571 15111 ft 274 kts 193°
2026-04-30 14:00 39.18728 1.85134 14103 ft 283 kts 193°
2026-04-30 14:01 39.16772 1.84698 13032 ft 287 kts 193°
2026-04-30 14:01 39.14797 1.84263 11961 ft 288 kts 193°
2026-04-30 14:01 39.12820 1.83824 10917 ft 288 kts 193°
2026-04-30 14:01 39.10851 1.83386 9912 ft 286 kts 193°
2026-04-30 14:02 39.08933 1.82803 8809 ft 281 kts 201°
2026-04-30 14:02 39.07176 1.81735 7750 ft 278 kts 212°
2026-04-30 14:02 39.05656 1.80251 7110 ft 265 kts 223°
2026-04-30 14:02 39.04471 1.78581 6790 ft 243 kts 234°
2026-04-30 14:03 39.03598 1.76791 6475 ft 231 kts 243°
2026-04-30 14:03 39.02876 1.74948 6174 ft 233 kts 243°
2026-04-30 14:03 39.02105 1.73067 5860 ft 241 kts 242°
2026-04-30 14:03 39.01299 1.71160 5544 ft 244 kts 242°
2026-04-30 14:04 39.00489 1.69224 5219 ft 246 kts 243°
2026-04-30 14:04 38.99681 1.67284 4893 ft 247 kts 243°
2026-04-30 14:04 38.98871 1.65335 4557 ft 247 kts 243°
2026-04-30 14:04 38.98059 1.63388 4228 ft 248 kts 243°
2026-04-30 14:05 38.97243 1.61434 3902 ft 248 kts 243°
2026-04-30 14:05 38.96439 1.59508 3584 ft 249 kts 243°
2026-04-30 14:05 38.95626 1.57543 3252 ft 249 kts 244°
2026-04-30 14:05 38.94826 1.55585 3048 ft 243 kts 244°
2026-04-30 14:06 38.94036 1.53663 3020 ft 245 kts 244°
2026-04-30 14:06 38.92417 1.49760 2519 ft 249 kts 243°
2026-04-30 14:07 38.90867 1.46021 1983 ft 207 kts 244°
2026-04-30 14:07 38.90441 1.45001 1897 ft 186 kts 244°
2026-04-30 14:07 38.89843 1.43549 1198 ft 186 kts 245°
2026-04-30 14:08 38.88791 1.40858 458 ft 141 kts 242°
2026-04-30 14:08 38.88337 1.39821 288 ft 124 kts 240°
2026-04-30 14:08 38.87570 1.38004 24 ft 99 kts 240°
2026-04-30 14:09 38.87324 1.37407 23 ft 54 kts 241°
2026-04-30 14:09 38.87259 1.37072 24 ft 35 kts 272°
2026-04-30 14:09 38.87262 1.36940 23 ft 0 kts 271°
2026-04-30 14:10 38.87263 1.36912 23 ft 11 kts 272°
2026-04-30 14:10 38.87312 1.36896 22 ft 13 kts 71°
2026-04-30 14:11 38.87360 1.37040 24 ft 20 kts 62°
2026-04-30 14:11 38.87435 1.37222 24 ft 26 kts 61°
2026-04-30 14:11 38.87523 1.37437 24 ft 28 kts 63°
2026-04-30 14:11 38.87601 1.37540 23 ft 15 kts 342°
2026-04-30 14:12 38.87701 1.37480 26 ft 16 kts 352°
2026-04-30 14:12 38.87745 1.37568 25 ft 10 kts 68°
2026-04-30 14:12 38.87725 1.37619 23 ft 7 kts 143°
2026-04-30 14:12 38.87690 1.37632 24 ft 4 kts 220°
2026-04-30 14:13 38.87668 1.37584 23 ft 8 kts 238°
2026-04-30 14:13 38.87664 1.37574 23 ft 0 kts 238°